When you browse on this site, cookies collect data to enhance your experience and personalize the content and advertising you see.
Visit our Privacy Policy to learn more. By continuing to use the site, you agree to this use of cookies and data.
  • In Spain
  • List of Countries
  • For 7 days
  • Water Temperature
  • Satellite Maps
  • Weather Map
  • Weather Widgets
  • user-avatar
    Login

    Hourly Weather Ludlow

    Today, 16 June, Sunday

    Time Temperature Precipitation Wind Pressure Humidity
    00:00 +16°C° 0 mm 3 mps 718 mmHg 83%
    01:00 +15°C° 0 mm 2 mps 717 mmHg 86%
    02:00 +15°C° 0.1 mm 2 mps 717 mmHg 89%
    03:00 +14°C° 0.1 mm 1 mps 717 mmHg 92%
    04:00 +14°C° 0.1 mm 1 mps 717 mmHg 96%
    05:00 +15°C° 0 mm 1 mps 717 mmHg 96%
    06:00 +15°C° 0 mm 1 mps 717 mmHg 96%
    07:00 +15°C° 0 mm 1 mps 717 mmHg 95%
    08:00 +16°C° 0.2 mm 1 mps 717 mmHg 95%
    09:00 +16°C° 0.2 mm 1 mps 717 mmHg 95%
    10:00 +15°C° 0.2 mm 0 mps 717 mmHg 95%
    11:00 +15°C° 1.2 mm 0 mps 717 mmHg 97%
    12:00 +15°C° 1.2 mm 0 mps 717 mmHg 98%
    13:00 +15°C° 1.2 mm 0 mps 717 mmHg 99%
    14:00 +16°C° 0.5 mm 0 mps 716 mmHg 99%
    15:00 +16°C° 0.5 mm 0 mps 716 mmHg 98%
    16:00 +16°C° 0.5 mm 0 mps 716 mmHg 98%
    17:00 +16°C° 0 mm 0 mps 716 mmHg 98%
    18:00 +16°C° 0 mm 0 mps 716 mmHg 98%
    19:00 +15°C° 0 mm 0 mps 717 mmHg 98%
    20:00 +16°C° 0 mm 1 mps 717 mmHg 98%
    21:00 +15°C° 0 mm 1 mps 717 mmHg 98%
    22:00 +14°C° 0 mm 1 mps 717 mmHg 98%
    23:00 +14°C° 0 mm 1 mps 717 mmHg 98%

    Tomorrow, 17 June, Monday

    Time Temperature Precipitation Wind Pressure Humidity
    00:00 +12°C° 0 mm 0 mps 717 mmHg 98%
    01:00 +12°C° 0 mm 0 mps 718 mmHg 98%
    02:00 +12°C° 0 mm 1 mps 718 mmHg 98%
    03:00 +12°C° 0 mm 1 mps 718 mmHg 98%
    04:00 +11°C° 0 mm 1 mps 718 mmHg 98%
    05:00 +12°C° 0 mm 1 mps 718 mmHg 95%
    06:00 +14°C° 0 mm 1 mps 719 mmHg 92%
    07:00 +15°C° 0 mm 1 mps 720 mmHg 90%
    08:00 +18°C° 0 mm 1 mps 720 mmHg 75%
    09:00 +20°C° 0 mm 1 mps 720 mmHg 60%
    10:00 +23°C° 0 mm 2 mps 721 mmHg 45%
    11:00 +24°C° 0 mm 2 mps 721 mmHg 42%
    12:00 +25°C° 0 mm 1 mps 721 mmHg 40%
    13:00 +26°C° 0 mm 1 mps 721 mmHg 37%
    14:00 +26°C° 0 mm 1 mps 721 mmHg 38%
    15:00 +25°C° 0 mm 2 mps 720 mmHg 39%
    16:00 +25°C° 0 mm 2 mps 720 mmHg 39%
    17:00 +23°C° 0 mm 1 mps 720 mmHg 50%
    18:00 +18°C° 0 mm 0 mps 720 mmHg 61%
    19:00 +16°C° 0 mm 0 mps 720 mmHg 71%
    20:00 +15°C° 0 mm 0 mps 720 mmHg 73%
    21:00 +14°C° 0 mm 0 mps 720 mmHg 75%
    22:00 +13°C° 0 mm 0 mps 720 mmHg 77%
    23:00 +13°C° 0 mm 0 mps 720 mmHg 77%

    Day after tomorrow, 18 June, Tuesday

    Time Temperature Precipitation Wind Pressure Humidity
    00:00 +13°C° 0 mm 0 mps 720 mmHg 78%
    01:00 +12°C° 0 mm 0 mps 720 mmHg 78%
    02:00 +12°C° 0 mm 0 mps 719 mmHg 81%
    03:00 +11°C° 0 mm 0 mps 719 mmHg 83%
    04:00 +11°C° 0 mm 0 mps 719 mmHg 85%
    05:00 +13°C° 0 mm 0 mps 719 mmHg 80%
    06:00 +15°C° 0 mm 0 mps 719 mmHg 75%
    07:00 +17°C° 0 mm 0 mps 719 mmHg 70%
    08:00 +19°C° 0 mm 0 mps 720 mmHg 66%
    09:00 +23°C° 0 mm 1 mps 720 mmHg 62%
    10:00 +25°C° 0 mm 1 mps 720 mmHg 59%
    11:00 +24°C° 0.5 mm 1 mps 719 mmHg 67%
    12:00 +23°C° 0.5 mm 1 mps 719 mmHg 75%
    13:00 +23°C° 0.5 mm 1 mps 719 mmHg 84%
    14:00 +22°C° 1.2 mm 1 mps 718 mmHg 87%
    15:00 +22°C° 1.2 mm 1 mps 718 mmHg 91%
    16:00 +21°C° 1.2 mm 1 mps 717 mmHg 94%
    17:00 +20°C° 0.6 mm 1 mps 718 mmHg 95%
    18:00 +19°C° 0.6 mm 1 mps 718 mmHg 95%
    19:00 +18°C° 0.6 mm 1 mps 718 mmHg 96%
    20:00 +18°C° 0 mm 1 mps 718 mmHg 96%
    21:00 +16°C° 0 mm 1 mps 717 mmHg 96%
    22:00 +15°C° 0 mm 1 mps 717 mmHg 96%
    23:00 +14°C° 0 mm 0 mps 717 mmHg 96%

    19 June, Wednesday

    Time Temperature Precipitation Wind Pressure Humidity
    00:00 +13°C° 0 mm 0 mps 717 mmHg 96%
    01:00 +13°C° 0 mm 0 mps 717 mmHg 96%
    02:00 +13°C° 0 mm 0 mps 717 mmHg 96%
    03:00 +12°C° 0 mm 0 mps 716 mmHg 96%
    04:00 +12°C° 0 mm 0 mps 716 mmHg 96%
    05:00 +14°C° 0 mm 0 mps 716 mmHg 95%
    06:00 +15°C° 0 mm 0 mps 716 mmHg 95%
    07:00 +16°C° 0 mm 0 mps 717 mmHg 94%
    08:00 +18°C° 0 mm 0 mps 717 mmHg 85%
    09:00 +22°C° 0 mm 1 mps 717 mmHg 75%
    10:00 +24°C° 0 mm 1 mps 717 mmHg 66%
    11:00 +25°C° 0.1 mm 1 mps 717 mmHg 64%
    12:00 +25°C° 0.1 mm 1 mps 717 mmHg 61%
    13:00 +26°C° 0.1 mm 1 mps 716 mmHg 59%
    14:00 +25°C° 0.3 mm 1 mps 716 mmHg 65%
    15:00 +25°C° 0.3 mm 2 mps 716 mmHg 71%
    16:00 +24°C° 0.3 mm 2 mps 715 mmHg 77%
    17:00 +23°C° 0.6 mm 1 mps 715 mmHg 83%
    18:00 +21°C° 0.6 mm 1 mps 715 mmHg 89%
    19:00 +20°C° 0.6 mm 1 mps 715 mmHg 95%
    20:00 +19°C° 0 mm 1 mps 715 mmHg 96%
    21:00 +18°C° 0 mm 1 mps 715 mmHg 97%
    22:00 +16°C° 0 mm 1 mps 715 mmHg 98%
    23:00 +16°C° 0 mm 1 mps 715 mmHg 98%

    20 June, Thursday

    Time Temperature Precipitation Wind Pressure Humidity
    00:00 +16°C° 0 mm 1 mps 714 mmHg 98%
    01:00 +15°C° 0 mm 1 mps 714 mmHg 99%
    02:00 +15°C° 0 mm 1 mps 714 mmHg 98%
    03:00 +14°C° 0 mm 0 mps 714 mmHg 98%
    04:00 +14°C° 0 mm 0 mps 714 mmHg 98%
    05:00 +16°C° 0.1 mm 0 mps 714 mmHg 97%
    06:00 +17°C° 0.1 mm 0 mps 714 mmHg 97%
    07:00 +18°C° 0.1 mm 0 mps 715 mmHg 96%
    08:00 +19°C° 0.2 mm 0 mps 715 mmHg 93%
    09:00 +19°C° 0.2 mm 0 mps 715 mmHg 89%
    10:00 +22°C° 0.2 mm 1 mps 714 mmHg 86%
    11:00 +22°C° 0.7 mm 1 mps 714 mmHg 86%
    12:00 +23°C° 0.7 mm 1 mps 714 mmHg 86%
    13:00 +23°C° 0.7 mm 1 mps 714 mmHg 86%
    14:00 +22°C° 1 mm 1 mps 714 mmHg 89%
    15:00 +21°C° 1 mm 1 mps 714 mmHg 93%
    16:00 +20°C° 1 mm 1 mps 714 mmHg 97%
    17:00 +19°C° 0.3 mm 1 mps 714 mmHg 97%
    18:00 +19°C° 0.3 mm 1 mps 714 mmHg 97%
    19:00 +18°C° 0.3 mm 1 mps 714 mmHg 97%
    20:00 +16°C° 0.2 mm 1 mps 714 mmHg 97%
    21:00 +15°C° 0.2 mm 0 mps 714 mmHg 97%
    22:00 +15°C° 0.2 mm 0 mps 713 mmHg 97%
    23:00 +14°C° 0.4 mm 0 mps 713 mmHg 97%

    21 June, Friday

    Time Temperature Precipitation Wind Pressure Humidity
    00:00 +15°C° 0.4 mm 1 mps 713 mmHg 98%
    01:00 +15°C° 0.4 mm 1 mps 712 mmHg 98%
    02:00 +15°C° 2.8 mm 1 mps 712 mmHg 98%
    03:00 +15°C° 2.8 mm 1 mps 711 mmHg 99%
    04:00 +15°C° 2.8 mm 2 mps 711 mmHg 99%
    05:00 +15°C° 7.5 mm 1 mps 711 mmHg 99%
    06:00 +15°C° 7.5 mm 1 mps 711 mmHg 99%
    07:00 +15°C° 7.5 mm 1 mps 710 mmHg 99%
    08:00 +15°C° 4 mm 1 mps 710 mmHg 99%
    09:00 +15°C° 4 mm 2 mps 710 mmHg 99%
    10:00 +15°C° 4 mm 2 mps 710 mmHg 99%
    11:00 +15°C° 1.5 mm 2 mps 710 mmHg 99%
    12:00 +15°C° 1.5 mm 2 mps 709 mmHg 99%
    13:00 +15°C° 1.5 mm 2 mps 709 mmHg 99%
    14:00 +15°C° 0.4 mm 2 mps 709 mmHg 98%
    15:00 +14°C° 0.4 mm 3 mps 709 mmHg 98%
    16:00 +13°C° 0.4 mm 3 mps 708 mmHg 98%
    17:00 +13°C° 2.1 mm 3 mps 709 mmHg 98%
    18:00 +13°C° 2.1 mm 3 mps 709 mmHg 98%
    19:00 +12°C° 2.1 mm 4 mps 709 mmHg 98%
    20:00 +12°C° 3.4 mm 4 mps 710 mmHg 98%
    21:00 +12°C° 3.4 mm 4 mps 710 mmHg 98%
    22:00 +12°C° 3.4 mm 5 mps 711 mmHg 98%
    23:00 +12°C° 1.9 mm 4 mps 712 mmHg 98%
    Show more